AFL596Z OMDB-UNKL

Flight info

Callsign AFL596Z
Flight time N/A
Altitude 35000
Route DAVMO M318 GABKO M317 RADEB DCT GADER/K0882F330 DCT OSH/K0859F350 DCT UMLOD M618 LIPSI DCT BOKIS B156 ROGMA ROGMA2S
Aircraft A320/M-SDE3FGHIRWY/LB1

Departure

Time N/A
Airport Dubai International Airport (OMDB)

Arrival

Time 2026-05-01 08:18
Airport Krasnoyarsk International Airport (UNKL)
Time Latitude Longitude Altitude Speed Heading
2026-05-01 07:52 55.14816 90.70067 23606 ft 469 kts 59°
2026-05-01 07:52 55.16400 90.74986 22752 ft 462 kts 59°
2026-05-01 07:52 55.17955 90.79822 22067 ft 456 kts 59°
2026-05-01 07:53 55.21020 90.89382 20785 ft 448 kts 59°
2026-05-01 07:53 55.22542 90.94103 20122 ft 445 kts 59°
2026-05-01 07:53 55.24043 90.98763 19463 ft 441 kts 59°
2026-05-01 07:53 55.25540 91.03442 18822 ft 437 kts 59°
2026-05-01 07:54 55.28452 91.12632 17566 ft 428 kts 59°
2026-05-01 07:55 55.32690 91.26041 15642 ft 416 kts 59°
2026-05-01 07:55 55.35460 91.34831 14311 ft 409 kts 59°
2026-05-01 07:56 55.39376 91.47362 12356 ft 377 kts 59°
2026-05-01 07:56 55.41881 91.54994 11690 ft 342 kts 50°
2026-05-01 07:57 55.43447 91.57977 11432 ft 325 kts 43°
2026-05-01 07:57 55.46465 91.63334 11012 ft 295 kts 43°
2026-05-01 07:58 55.49062 91.67960 10187 ft 287 kts 44°
2026-05-01 07:58 55.51746 91.72750 9798 ft 265 kts 44°
2026-05-01 07:59 55.54257 91.77233 9346 ft 256 kts 43°
2026-05-01 07:59 55.56781 91.81751 8629 ft 259 kts 43°
2026-05-01 08:00 55.61943 91.91026 7823 ft 269 kts 43°
2026-05-01 08:01 55.65883 91.98141 7594 ft 271 kts 43°
2026-05-01 08:01 55.67192 92.00509 7515 ft 271 kts 43°
2026-05-01 08:01 55.68510 92.02894 7436 ft 272 kts 43°
2026-05-01 08:02 55.71167 92.07709 7282 ft 272 kts 43°
2026-05-01 08:02 55.72480 92.10091 7202 ft 272 kts 43°
2026-05-01 08:03 55.75136 92.14918 7047 ft 273 kts 43°
2026-05-01 08:03 55.76567 92.17061 6946 ft 268 kts 31°
2026-05-01 08:03 55.79670 92.20698 6743 ft 268 kts 31°
2026-05-01 08:04 55.82793 92.24403 6530 ft 268 kts 31°
2026-05-01 08:04 55.85890 92.28083 6318 ft 269 kts 31°
2026-05-01 08:05 55.88987 92.31767 6108 ft 269 kts 31°
2026-05-01 08:05 55.90557 92.33638 6002 ft 269 kts 31°
2026-05-01 08:05 55.92094 92.35471 5894 ft 270 kts 31°
2026-05-01 08:06 55.95223 92.39206 5681 ft 270 kts 31°
2026-05-01 08:06 55.98324 92.42917 5471 ft 270 kts 31°
2026-05-01 08:07 56.01448 92.46661 5259 ft 269 kts 31°
2026-05-01 08:07 56.04545 92.50378 5047 ft 269 kts 30°
2026-05-01 08:08 56.06192 92.51921 4956 ft 264 kts 19°
2026-05-01 08:08 56.09580 92.54485 4793 ft 265 kts 20°
2026-05-01 08:09 56.12980 92.57094 4626 ft 266 kts 20°
2026-05-01 08:09 56.14674 92.58394 4541 ft 266 kts 20°
2026-05-01 08:09 56.16365 92.59693 4462 ft 266 kts 20°
2026-05-01 08:10 56.19767 92.62309 4294 ft 266 kts 20°
2026-05-01 08:10 56.23167 92.64953 4129 ft 267 kts 25°
2026-05-01 08:11 56.25231 92.70253 4017 ft 275 kts 85°
2026-05-01 08:11 56.24185 92.76802 4011 ft 276 kts 114°
2026-05-01 08:12 56.22062 92.82349 4009 ft 275 kts 152°
2026-05-01 08:12 56.20262 92.83285 3853 ft 272 kts 181°
2026-05-01 08:12 56.16748 92.81213 3187 ft 265 kts 204°
2026-05-01 08:13 56.15120 92.79948 3038 ft 252 kts 205°
2026-05-01 08:13 56.13562 92.78745 3024 ft 235 kts 205°
2026-05-01 08:13 56.11591 92.75037 3024 ft 201 kts 263°
2026-05-01 08:14 56.11728 92.72656 3041 ft 184 kts 291°
2026-05-01 08:14 56.12241 92.70673 3020 ft 163 kts 292°
2026-05-01 08:14 56.12656 92.68924 2989 ft 149 kts 293°
2026-05-01 08:14 56.13051 92.67210 2825 ft 149 kts 292°
2026-05-01 08:15 56.13450 92.65485 2629 ft 145 kts 294°
2026-05-01 08:15 56.14211 92.62240 2231 ft 139 kts 296°
2026-05-01 08:15 56.14608 92.60658 2057 ft 140 kts 288°
2026-05-01 08:16 56.14984 92.59055 1871 ft 139 kts 295°
2026-05-01 08:16 56.15274 92.57800 1722 ft 139 kts 288°
2026-05-01 08:16 56.15623 92.56182 1535 ft 138 kts 293°
2026-05-01 08:16 56.16042 92.54591 1255 ft 139 kts 291°
2026-05-01 08:17 56.16414 92.52995 1102 ft 140 kts 292°
2026-05-01 08:17 56.16792 92.51411 956 ft 135 kts 292°
2026-05-01 08:17 56.17108 92.50078 949 ft 123 kts 296°
2026-05-01 08:17 56.17372 92.48985 948 ft 66 kts 292°
2026-05-01 08:18 56.17515 92.48395 948 ft 44 kts 295°
2026-05-01 08:18 56.17663 92.47770 948 ft 10 kts 313°
2026-05-01 08:19 56.17745 92.47792 948 ft 6 kts 24°
2026-05-01 08:19 56.17785 92.47823 948 ft 6 kts 23°
2026-05-01 08:19 56.17802 92.47837 948 ft 0 kts 27°
2026-05-01 08:19 56.17804 92.47839 948 ft 0 kts 27°
2026-05-01 08:20 56.17808 92.47842 948 ft 1 kts 27°
2026-05-01 08:20 56.17869 92.47893 948 ft 14 kts 22°
2026-05-01 08:20 56.17942 92.47945 948 ft 6 kts 22°
2026-05-01 08:20 56.17974 92.47968 948 ft 0 kts 22°
2026-05-01 08:22 56.17978 92.47971 948 ft 2 kts 22°
2026-05-01 08:22 56.17997 92.47985 948 ft 2 kts 22°
2026-05-01 08:23 56.18013 92.48000 948 ft 0 kts 41°
2026-05-01 08:23 56.18014 92.48041 948 ft 8 kts 100°
2026-05-01 08:23 56.17996 92.48165 948 ft 7 kts 75°
2026-05-01 08:23 56.18017 92.48201 948 ft 1 kts 26°
2026-05-01 08:24 56.18019 92.48203 948 ft 0 kts 26°